Time,TemperatureF,DewpointF,PressureIn,WindDirection,WindDirectionDegrees,WindSpeedMPH,WindSpeedGustMPH,Humidity,HourlyPrecipIn,Conditions,Clouds,dailyrainin,SoftwareType,DateUTC
2013-02-16 00:00:00,43.1,31.7,30.34,NW,315,5.8,6.9,64,0.00,,,0.00,WUHU216HW,2013-02-16 05:00:00,
2013-02-16 00:05:00,42.8,31.8,30.34,NW,315,6.4,6.9,65,0.00,,,0.00,WUHU216HW,2013-02-16 05:05:00,
2013-02-16 00:10:00,42.6,32.0,30.34,NW,315,3.3,6.4,66,0.00,,,0.00,WUHU216HW,2013-02-16 05:10:00,
2013-02-16 00:15:00,42.4,31.8,30.35,NW,315,5.5,7.6,66,0.00,,,0.00,WUHU216HW,2013-02-16 05:15:00,
2013-02-16 00:20:00,42.2,32.0,30.34,WNW,293,1.3,7.6,67,0.00,,,0.00,WUHU216HW,2013-02-16 05:20:00,
2013-02-16 00:25:00,42.0,32.5,30.34,NW,315,5.5,5.8,69,0.00,,,0.00,WUHU216HW,2013-02-16 05:25:00,
2013-02-16 00:30:00,41.7,33.0,30.35,NW,315,0.0,5.5,71,0.00,,,0.00,WUHU216HW,2013-02-16 05:30:00,
2013-02-16 00:35:00,41.3,33.0,30.35,NNW,338,1.7,5.5,72,0.00,,,0.00,WUHU216HW,2013-02-16 05:35:00,
2013-02-16 00:40:00,41.0,32.8,30.36,WNW,293,4.6,5.5,72,0.00,,,0.00,WUHU216HW,2013-02-16 05:40:00,
2013-02-16 00:45:00,40.8,33.1,30.35,West,270,7.3,7.3,74,0.00,,,0.00,WUHU216HW,2013-02-16 05:45:00,
2013-02-16 00:50:00,40.6,32.9,30.35,WNW,293,0.0,7.3,74,0.00,,,0.00,WUHU216HW,2013-02-16 05:50:00,
2013-02-16 00:55:00,40.4,33.2,30.35,NW,315,6.4,7.3,75,0.00,,,0.00,WUHU216HW,2013-02-16 05:55:00,
2013-02-16 01:00:00,40.2,33.2,30.35,NW,315,4.0,6.4,76,0.00,,,0.00,WUHU216HW,2013-02-16 06:00:00,
2013-02-16 01:05:00,40.1,33.0,30.35,WSW,248,0.0,6.4,76,0.00,,,0.00,WUHU216HW,2013-02-16 06:05:00,
2013-02-16 01:10:00,39.9,33.2,30.36,WNW,293,0.0,4.0,77,0.00,,,0.00,WUHU216HW,2013-02-16 06:10:00,
2013-02-16 01:15:00,39.7,33.4,30.35,NW,315,2.9,3.5,78,0.00,,,0.00,WUHU216HW,2013-02-16 06:15:00,
2013-02-16 01:20:00,39.5,33.2,30.35,WNW,293,0.0,2.9,78,0.00,,,0.00,WUHU216HW,2013-02-16 06:20:00,
2013-02-16 01:25:00,39.5,33.6,30.35,NW,315,0.4,3.3,79,0.00,,,0.00,WUHU216HW,2013-02-16 06:25:00,
2013-02-16 01:30:00,39.3,33.7,30.35,West,270,0.0,4.0,80,0.00,,,0.00,WUHU216HW,2013-02-16 06:30:00,
2013-02-16 01:35:00,39.3,33.7,30.34,WNW,293,2.9,4.0,80,0.00,,,0.00,WUHU216HW,2013-02-16 06:35:00,
2013-02-16 01:40:00,39.0,33.9,30.35,WNW,293,0.2,3.3,81,0.00,,,0.00,WUHU216HW,2013-02-16 06:40:00,
2013-02-16 01:45:00,39.0,33.7,30.34,WNW,293,2.2,7.3,81,0.00,,,0.00,WUHU216HW,2013-02-16 06:45:00,
2013-02-16 01:50:00,38.8,33.8,30.34,WNW,293,2.6,7.3,82,0.00,,,0.00,WUHU216HW,2013-02-16 06:50:00,
2013-02-16 01:55:00,38.6,33.6,30.34,WNW,293,2.9,6.9,82,0.00,,,0.00,WUHU216HW,2013-02-16 06:55:00,
2013-02-16 02:00:00,38.4,33.4,30.34,WNW,293,0.0,6.9,82,0.00,,,0.00,WUHU216HW,2013-02-16 07:00:00,
2013-02-16 02:05:00,38.4,33.7,30.34,WNW,293,0.0,2.9,83,0.00,,,0.00,WUHU216HW,2013-02-16 07:05:00,
2013-02-16 02:12:00,38.4,33.7,30.34,WNW,293,6.9,6.9,83,0.00,,,0.00,WUHU216HW,2013-02-16 07:12:00,
2013-02-16 02:17:00,38.3,33.8,30.34,NW,315,0.0,6.9,84,0.00,,,0.00,WUHU216HW,2013-02-16 07:17:00,
2013-02-16 02:22:00,38.1,33.6,30.34,WNW,293,0.0,2.4,84,0.00,,,0.00,WUHU216HW,2013-02-16 07:22:00,
2013-02-16 02:27:00,38.1,33.6,30.33,WNW,293,0.0,2.4,84,0.00,,,0.00,WUHU216HW,2013-02-16 07:27:00,
2013-02-16 02:32:00,37.9,33.8,30.33,WNW,293,0.0,3.1,85,0.00,,,0.00,WUHU216HW,2013-02-16 07:32:00,
2013-02-16 02:37:00,37.9,33.8,30.33,WNW,293,0.0,3.1,85,0.00,,,0.00,WUHU216HW,2013-02-16 07:37:00,
2013-02-16 02:42:00,37.9,33.8,30.33,WNW,293,0.0,0.0,85,0.00,,,0.00,WUHU216HW,2013-02-16 07:42:00,
2013-02-16 02:47:00,37.9,34.0,30.33,WNW,293,0.0,0.0,86,0.00,,,0.00,WUHU216HW,2013-02-16 07:47:00,
2013-02-16 02:52:00,37.7,33.9,30.33,NW,315,0.0,0.0,86,0.00,,,0.00,WUHU216HW,2013-02-16 07:52:00,
2013-02-16 02:57:00,37.7,33.9,30.33,WNW,293,0.0,0.0,86,0.00,,,0.00,WUHU216HW,2013-02-16 07:57:00,
2013-02-16 03:02:00,37.7,34.1,30.33,WNW,293,4.2,7.1,87,0.00,,,0.00,WUHU216HW,2013-02-16 08:02:00,
2013-02-16 03:08:00,37.5,34.0,30.32,WNW,293,0.0,7.1,87,0.00,,,0.00,WUHU216HW,2013-02-16 08:08:00,
2013-02-16 03:13:00,37.5,34.0,30.32,WNW,293,0.0,4.2,87,0.00,,,0.00,WUHU216HW,2013-02-16 08:13:00,
2013-02-16 03:18:00,37.5,34.0,30.33,WNW,293,0.0,0.0,87,0.00,,,0.00,WUHU216HW,2013-02-16 08:18:00,
2013-02-16 03:23:00,37.5,34.0,30.33,WNW,293,0.0,0.0,87,0.00,,,0.00,WUHU216HW,2013-02-16 08:23:00,
2013-02-16 03:28:00,37.5,34.0,30.32,WNW,293,2.4,2.4,87,0.00,,,0.00,WUHU216HW,2013-02-16 08:28:00,
2013-02-16 03:33:00,37.4,33.8,30.32,WNW,293,4.2,4.2,87,0.02,,,0.00,WUHU216HW,2013-02-16 08:33:00,
2013-02-16 03:38:00,37.2,33.6,30.32,WNW,293,0.0,4.2,87,0.02,,,0.02,WUHU216HW,2013-02-16 08:38:00,
2013-02-16 03:43:00,37.2,33.6,30.32,WNW,293,0.0,4.2,87,0.02,,,0.02,WUHU216HW,2013-02-16 08:43:00,
2013-02-16 03:48:00,37.0,33.7,30.32,WNW,293,0.0,2.9,88,0.02,,,0.02,WUHU216HW,2013-02-16 08:48:00,
2013-02-16 03:53:00,37.0,33.7,30.32,WNW,293,0.0,0.0,88,0.02,,,0.02,WUHU216HW,2013-02-16 08:53:00,
2013-02-16 03:58:00,37.0,33.7,30.32,WNW,293,0.0,0.0,88,0.02,,,0.02,WUHU216HW,2013-02-16 08:58:00,
2013-02-16 04:03:00,37.0,33.7,30.32,WNW,293,0.0,0.0,88,0.02,,,0.02,WUHU216HW,2013-02-16 09:03:00,
2013-02-16 04:08:00,37.0,33.7,30.31,WNW,293,0.0,0.0,88,0.02,,,0.02,WUHU216HW,2013-02-16 09:08:00,
2013-02-16 04:13:00,37.0,33.7,30.31,SSW,203,0.0,0.0,88,0.02,,,0.02,WUHU216HW,2013-02-16 09:13:00,
2013-02-16 04:18:00,36.8,33.5,30.32,West,270,0.0,0.0,88,0.02,,,0.02,WUHU216HW,2013-02-16 09:18:00,
2013-02-16 04:24:00,36.8,33.5,30.32,WNW,293,0.0,0.0,88,0.02,,,0.02,WUHU216HW,2013-02-16 09:24:00,
2013-02-16 04:29:00,36.6,33.6,30.32,WNW,293,0.0,0.0,89,0.02,,,0.02,WUHU216HW,2013-02-16 09:29:00,
2013-02-16 04:34:00,36.6,33.4,30.31,West,270,0.0,0.0,88,0.00,,,0.02,WUHU216HW,2013-02-16 09:34:00,
2013-02-16 04:39:00,36.6,33.4,30.31,SW,225,0.0,0.0,88,0.00,,,0.02,WUHU216HW,2013-02-16 09:39:00,
2013-02-16 04:44:00,36.6,33.1,30.31,East,90,0.0,0.0,87,0.00,,,0.02,WUHU216HW,2013-02-16 09:44:00,
2013-02-16 04:49:00,36.5,32.9,30.32,NW,315,0.0,0.0,87,0.00,,,0.02,WUHU216HW,2013-02-16 09:49:00,
2013-02-16 04:55:00,36.5,32.9,30.31,WNW,293,0.0,0.0,87,0.00,,,0.02,WUHU216HW,2013-02-16 09:55:00,
2013-02-16 05:00:00,36.3,32.7,30.32,NW,315,0.0,0.0,87,0.00,,,0.02,WUHU216HW,2013-02-16 10:00:00,
2013-02-16 05:05:00,36.3,32.7,30.32,WNW,293,0.0,0.0,87,0.00,,,0.02,WUHU216HW,2013-02-16 10:05:00,
2013-02-16 05:10:00,36.3,32.7,30.33,WNW,293,0.0,0.0,87,0.00,,,0.02,WUHU216HW,2013-02-16 10:10:00,
2013-02-16 05:15:00,36.3,32.7,30.33,WNW,293,0.0,0.0,87,0.00,,,0.02,WUHU216HW,2013-02-16 10:15:00,
2013-02-16 05:20:00,36.3,32.7,30.34,WNW,293,0.0,0.0,87,0.00,,,0.02,WUHU216HW,2013-02-16 10:20:00,
2013-02-16 05:26:00,36.3,32.7,30.34,NW,315,0.0,7.6,87,0.00,,,0.02,WUHU216HW,2013-02-16 10:26:00,
2013-02-16 05:31:00,36.3,32.4,30.34,West,270,3.1,7.6,86,0.00,,,0.02,WUHU216HW,2013-02-16 10:31:00,
2013-02-16 05:36:00,36.3,32.4,30.33,NW,315,0.0,3.1,86,0.00,,,0.02,WUHU216HW,2013-02-16 10:36:00,
2013-02-16 05:41:00,36.1,32.2,30.33,SW,225,0.0,0.0,86,0.00,,,0.02,WUHU216HW,2013-02-16 10:41:00,
2013-02-16 05:46:00,36.1,32.2,30.33,SSW,203,0.0,0.0,86,0.00,,,0.02,WUHU216HW,2013-02-16 10:46:00,
2013-02-16 05:51:00,36.3,32.7,30.32,NW,315,0.0,0.0,87,0.00,,,0.02,WUHU216HW,2013-02-16 10:51:00,
2013-02-16 05:57:00,36.1,32.5,30.32,NW,315,0.0,0.0,87,0.00,,,0.02,WUHU216HW,2013-02-16 10:57:00,
2013-02-16 06:02:00,36.1,32.5,30.33,West,270,0.0,0.0,87,0.00,,,0.02,WUHU216HW,2013-02-16 11:02:00,
2013-02-16 06:07:00,35.9,32.6,30.33,WNW,293,0.0,4.9,88,0.00,,,0.02,WUHU216HW,2013-02-16 11:07:00,
2013-02-16 06:12:00,35.7,32.5,30.33,WNW,293,2.6,6.4,88,0.00,,,0.02,WUHU216HW,2013-02-16 11:12:00,
2013-02-16 06:17:00,35.7,32.5,30.33,WNW,293,0.0,6.4,88,0.00,,,0.02,WUHU216HW,2013-02-16 11:17:00,
2013-02-16 06:22:00,35.7,32.5,30.33,NW,315,5.1,5.1,88,0.00,,,0.02,WUHU216HW,2013-02-16 11:22:00,
2013-02-16 06:27:00,35.7,32.5,30.33,NW,315,4.4,6.4,88,0.00,,,0.02,WUHU216HW,2013-02-16 11:27:00,
2013-02-16 06:32:00,35.7,32.5,30.34,WNW,293,0.0,6.4,88,0.00,,,0.02,WUHU216HW,2013-02-16 11:32:00,
2013-02-16 06:39:00,35.4,32.1,30.32,WNW,293,0.0,4.6,88,0.00,,,0.02,WUHU216HW,2013-02-16 11:39:00,
2013-02-16 06:44:00,35.4,32.1,30.32,WNW,293,0.0,4.6,88,0.00,,,0.02,WUHU216HW,2013-02-16 11:44:00,
2013-02-16 06:50:00,35.4,31.8,30.32,SSE,158,0.0,3.8,87,0.00,,,0.02,WUHU216HW,2013-02-16 11:50:00,
2013-02-16 06:55:00,35.4,31.8,30.33,NW,315,0.0,3.8,87,0.00,,,0.02,WUHU216HW,2013-02-16 11:55:00,
2013-02-16 07:01:00,35.4,31.8,30.33,NW,315,0.2,2.2,87,0.00,,,0.02,WUHU216HW,2013-02-16 12:01:00,
2013-02-16 07:06:00,35.2,31.6,30.33,WNW,293,0.0,2.2,87,0.00,,,0.02,WUHU216HW,2013-02-16 12:06:00,
2013-02-16 07:11:00,35.2,31.6,30.34,WNW,293,3.5,3.5,87,0.00,,,0.02,WUHU216HW,2013-02-16 12:11:00,
2013-02-16 07:16:00,35.2,31.6,30.33,WNW,293,0.0,3.5,87,0.00,,,0.02,WUHU216HW,2013-02-16 12:16:00,
2013-02-16 07:21:00,35.2,31.6,30.34,WNW,293,0.0,3.5,87,0.00,,,0.02,WUHU216HW,2013-02-16 12:21:00,
2013-02-16 07:26:00,35.2,31.6,30.33,WNW,293,0.0,0.0,87,0.00,,,0.02,WUHU216HW,2013-02-16 12:26:00,
2013-02-16 07:31:00,35.4,31.5,30.33,WNW,293,0.0,0.0,86,0.00,,,0.02,WUHU216HW,2013-02-16 12:31:00,
2013-02-16 07:36:00,35.4,31.5,30.33,WNW,293,0.0,0.0,86,0.00,,,0.02,WUHU216HW,2013-02-16 12:36:00,
2013-02-16 07:41:00,35.4,31.2,30.33,WNW,293,0.0,0.0,85,0.00,,,0.02,WUHU216HW,2013-02-16 12:41:00,
2013-02-16 07:46:00,35.4,31.2,30.33,WNW,293,0.0,0.0,85,0.00,,,0.02,WUHU216HW,2013-02-16 12:46:00,
2013-02-16 07:51:00,35.4,30.9,30.34,WNW,293,0.0,0.0,84,0.00,,,0.02,WUHU216HW,2013-02-16 12:51:00,
2013-02-16 07:56:00,35.4,31.2,30.34,NW,315,6.7,6.7,85,0.00,,,0.02,WUHU216HW,2013-02-16 12:56:00,
2013-02-16 08:01:00,35.4,31.2,30.34,SE,135,0.0,6.7,85,0.00,,,0.02,WUHU216HW,2013-02-16 13:01:00,
2013-02-16 08:06:00,35.4,31.2,30.34,WSW,248,0.0,6.7,85,0.00,,,0.02,WUHU216HW,2013-02-16 13:06:00,
2013-02-16 08:11:00,35.2,31.3,30.34,WNW,293,0.0,1.1,86,0.00,,,0.02,WUHU216HW,2013-02-16 13:11:00,
2013-02-16 08:16:00,35.2,31.3,30.34,NW,315,0.0,6.2,86,0.00,,,0.02,WUHU216HW,2013-02-16 13:16:00,
2013-02-16 08:21:00,35.2,31.3,30.34,WNW,293,0.0,6.2,86,0.00,,,0.02,WUHU216HW,2013-02-16 13:21:00,
2013-02-16 08:26:00,35.2,31.3,30.34,WNW,293,0.0,0.0,86,0.00,,,0.02,WUHU216HW,2013-02-16 13:26:00,
2013-02-16 08:31:00,35.2,31.3,30.34,WNW,293,0.0,0.0,86,0.00,,,0.02,WUHU216HW,2013-02-16 13:31:00,
2013-02-16 08:36:00,35.4,31.5,30.34,West,270,0.0,4.2,86,0.00,,,0.02,WUHU216HW,2013-02-16 13:36:00,
2013-02-16 08:41:00,35.4,31.5,30.34,WNW,293,0.0,4.2,86,0.00,,,0.02,WUHU216HW,2013-02-16 13:41:00,
2013-02-16 08:46:00,35.2,31.1,30.34,WNW,293,0.0,1.7,85,0.00,,,0.02,WUHU216HW,2013-02-16 13:46:00,
2013-02-16 08:51:00,35.2,30.8,30.34,East,90,0.0,1.7,84,0.00,,,0.02,WUHU216HW,2013-02-16 13:51:00,
2013-02-16 08:56:00,35.2,30.5,30.34,WNW,293,0.0,1.7,83,0.00,,,0.02,WUHU216HW,2013-02-16 13:56:00,
2013-02-16 09:02:00,35.2,30.5,30.34,WNW,293,0.0,1.7,83,0.00,,,0.02,WUHU216HW,2013-02-16 14:02:00,
2013-02-16 09:07:00,35.2,30.2,30.34,NW,315,0.0,0.0,82,0.00,,,0.02,WUHU216HW,2013-02-16 14:07:00,
2013-02-16 09:12:00,35.2,30.2,30.34,WSW,248,0.0,0.0,82,0.00,,,0.02,WUHU216HW,2013-02-16 14:12:00,
2013-02-16 09:17:00,35.4,30.7,30.34,NW,315,0.0,2.6,82,0.00,,,0.02,WUHU216HW,2013-02-16 14:17:00,
2013-02-16 09:22:00,35.9,30.6,30.34,West,270,0.0,2.6,81,0.00,,,0.02,WUHU216HW,2013-02-16 14:22:00,
2013-02-16 09:27:00,36.3,31.0,30.33,WNW,293,0.0,0.0,81,0.00,,,0.02,WUHU216HW,2013-02-16 14:27:00,
2013-02-16 09:32:00,36.3,30.4,30.33,WNW,293,0.0,0.0,79,0.00,,,0.02,WUHU216HW,2013-02-16 14:32:00,
2013-02-16 09:37:00,36.3,30.0,30.33,NW,315,0.0,0.0,78,0.00,,,0.02,WUHU216HW,2013-02-16 14:37:00,
2013-02-16 09:42:00,36.3,29.4,30.33,NNE,23,0.0,0.0,76,0.00,,,0.02,WUHU216HW,2013-02-16 14:42:00,
2013-02-16 09:47:00,36.5,29.6,30.32,West,270,0.0,0.0,76,0.00,,,0.02,WUHU216HW,2013-02-16 14:47:00,
2013-02-16 09:52:00,37.0,29.8,30.33,WNW,293,0.0,0.0,75,0.00,,,0.02,WUHU216HW,2013-02-16 14:52:00,
2013-02-16 09:57:00,37.0,29.8,30.32,NW,315,0.0,0.0,75,0.00,,,0.02,WUHU216HW,2013-02-16 14:57:00,
2013-02-16 10:02:00,37.0,29.1,30.33,NW,315,0.0,2.4,73,0.00,,,0.02,WUHU216HW,2013-02-16 15:02:00,
2013-02-16 10:07:00,37.2,29.6,30.32,NW,315,0.0,2.4,74,0.00,,,0.02,WUHU216HW,2013-02-16 15:07:00,
2013-02-16 10:13:00,37.5,29.7,30.32,NNW,338,0.0,0.0,73,0.00,,,0.02,WUHU216HW,2013-02-16 15:13:00,
2013-02-16 10:18:00,37.7,29.2,30.33,NW,315,0.0,10.9,71,0.00,,,0.02,WUHU216HW,2013-02-16 15:18:00,
2013-02-16 10:23:00,37.7,29.2,30.33,WSW,248,0.0,10.9,71,0.00,,,0.02,WUHU216HW,2013-02-16 15:23:00,
2013-02-16 10:28:00,37.5,27.9,30.33,WNW,293,0.0,0.0,68,0.00,,,0.02,WUHU216HW,2013-02-16 15:28:00,
2013-02-16 10:33:00,37.2,27.6,30.33,NW,315,4.9,6.4,68,0.00,,,0.02,WUHU216HW,2013-02-16 15:33:00,
2013-02-16 10:38:00,37.0,27.4,30.32,WNW,293,0.0,6.4,68,0.00,,,0.02,WUHU216HW,2013-02-16 15:38:00,
2013-02-16 10:44:00,37.0,27.8,30.32,WNW,293,0.0,0.0,69,0.00,,,0.02,WUHU216HW,2013-02-16 15:44:00,
2013-02-16 10:49:00,37.0,27.4,30.32,NW,315,0.0,0.4,68,0.00,,,0.02,WUHU216HW,2013-02-16 15:49:00,
2013-02-16 10:55:00,37.0,27.4,30.32,WNW,293,0.0,1.5,68,0.00,,,0.02,WUHU216HW,2013-02-16 15:55:00,
2013-02-16 11:00:00,37.2,27.6,30.32,WNW,293,0.0,1.5,68,0.00,,,0.02,WUHU216HW,2013-02-16 16:00:00,
2013-02-16 11:07:00,37.7,28.1,30.32,WNW,293,0.0,0.0,68,0.00,,,0.02,WUHU216HW,2013-02-16 16:07:00,
2013-02-16 11:12:00,38.1,28.0,30.32,NW,315,1.1,1.1,67,0.00,,,0.02,WUHU216HW,2013-02-16 16:12:00,
2013-02-16 11:17:00,38.3,27.8,30.32,WNW,293,0.0,3.3,66,0.00,,,0.02,WUHU216HW,2013-02-16 16:17:00,
2013-02-16 11:22:00,38.4,28.0,30.32,WNW,293,6.9,6.9,66,0.00,,,0.02,WUHU216HW,2013-02-16 16:22:00,
2013-02-16 11:27:00,38.8,27.9,30.32,NE,45,0.0,6.9,65,0.00,,,0.02,WUHU216HW,2013-02-16 16:27:00,
2013-02-16 11:32:00,39.0,28.1,30.32,WNW,293,0.0,0.0,65,0.00,,,0.02,WUHU216HW,2013-02-16 16:32:00,
2013-02-16 11:38:00,39.3,27.7,30.30,WNW,293,0.0,4.2,63,0.00,,,0.02,WUHU216HW,2013-02-16 16:38:00,
2013-02-16 11:43:00,39.3,27.7,30.30,WNW,293,5.1,5.1,63,0.00,,,0.02,WUHU216HW,2013-02-16 16:43:00,
2013-02-16 11:48:00,39.3,27.7,30.30,WNW,293,0.0,5.1,63,0.00,,,0.02,WUHU216HW,2013-02-16 16:48:00,
2013-02-16 11:53:00,39.5,27.5,30.30,WNW,293,2.9,5.1,62,0.00,,,0.02,WUHU216HW,2013-02-16 16:53:00,
2013-02-16 11:58:00,39.9,28.2,30.29,WNW,293,0.0,2.9,63,0.00,,,0.02,WUHU216HW,2013-02-16 16:58:00,
2013-02-16 12:03:00,40.2,28.2,30.29,West,270,0.0,0.0,62,0.00,,,0.02,WUHU216HW,2013-02-16 17:03:00,
2013-02-16 12:09:00,41.7,29.6,30.29,NE,45,0.0,0.0,62,0.00,,,0.02,WUHU216HW,2013-02-16 17:09:00,
2013-02-16 12:14:00,42.6,29.6,30.29,SSE,158,0.0,0.0,60,0.00,,,0.02,WUHU216HW,2013-02-16 17:14:00,
2013-02-16 12:20:00,43.7,29.8,30.29,South,180,0.0,0.0,58,0.00,,,0.02,WUHU216HW,2013-02-16 17:20:00,
2013-02-16 12:25:00,44.2,29.9,30.29,SW,225,0.0,0.0,57,0.00,,,0.02,WUHU216HW,2013-02-16 17:25:00,
2013-02-16 12:30:00,44.4,29.2,30.29,WNW,293,0.0,0.0,56,0.00,,,0.02,WUHU216HW,2013-02-16 17:30:00,
2013-02-16 12:35:00,44.4,28.7,30.29,SW,225,0.0,0.0,54,0.00,,,0.02,WUHU216HW,2013-02-16 17:35:00,
2013-02-16 12:41:00,44.2,28.1,30.29,North,0,0.0,0.0,53,0.00,,,0.02,WUHU216HW,2013-02-16 17:41:00,
2013-02-16 12:46:00,43.7,27.6,30.28,SSE,158,0.0,0.0,53,0.00,,,0.02,WUHU216HW,2013-02-16 17:46:00,
2013-02-16 12:51:00,43.7,27.6,30.28,WSW,248,0.0,0.0,53,0.00,,,0.02,WUHU216HW,2013-02-16 17:51:00,
2013-02-16 12:56:00,44.0,27.9,30.28,SSE,158,0.0,0.0,53,0.00,,,0.02,WUHU216HW,2013-02-16 17:56:00,
2013-02-16 13:01:00,44.0,27.5,30.28,NNW,338,0.0,0.0,52,0.00,,,0.02,WUHU216HW,2013-02-16 18:01:00,
2013-02-16 13:06:00,43.8,27.3,30.28,West,270,0.0,0.0,52,0.00,,,0.02,WUHU216HW,2013-02-16 18:06:00,
2013-02-16 13:11:00,44.0,27.5,30.28,NW,315,0.0,0.0,52,0.00,,,0.02,WUHU216HW,2013-02-16 18:11:00,
2013-02-16 13:16:00,44.0,27.0,30.27,SW,225,0.0,0.0,51,0.00,,,0.02,WUHU216HW,2013-02-16 18:16:00,
2013-02-16 13:21:00,43.8,26.9,30.27,NW,315,0.0,0.0,51,0.00,,,0.02,WUHU216HW,2013-02-16 18:21:00,
2013-02-16 13:26:00,44.2,26.8,30.27,ESE,113,0.0,0.0,50,0.00,,,0.02,WUHU216HW,2013-02-16 18:26:00,
2013-02-16 13:32:00,44.2,26.8,30.27,SSE,158,0.0,0.0,50,0.00,,,0.02,WUHU216HW,2013-02-16 18:32:00,
2013-02-16 13:37:00,44.6,27.1,30.27,WNW,293,0.0,0.0,50,0.00,,,0.02,WUHU216HW,2013-02-16 18:37:00,
2013-02-16 13:43:00,44.9,26.9,30.27,WNW,293,0.0,0.0,49,0.00,,,0.02,WUHU216HW,2013-02-16 18:43:00,
2013-02-16 13:48:00,44.6,26.0,30.27,WNW,293,4.0,4.0,48,0.00,,,0.02,WUHU216HW,2013-02-16 18:48:00,
2013-02-16 13:54:00,43.8,25.4,30.27,NW,315,0.0,4.0,48,0.00,,,0.02,WUHU216HW,2013-02-16 18:54:00,
2013-02-16 13:59:00,43.5,25.6,30.26,SE,135,0.0,0.0,49,0.00,,,0.02,WUHU216HW,2013-02-16 18:59:00,
2013-02-16 14:05:00,43.5,25.6,30.26,SSE,158,0.0,0.0,49,0.00,,,0.02,WUHU216HW,2013-02-16 19:05:00,
2013-02-16 14:10:00,43.3,26.0,30.26,SSE,158,0.0,0.0,50,0.00,,,0.02,WUHU216HW,2013-02-16 19:10:00,
2013-02-16 14:15:00,42.9,25.6,30.26,NE,45,0.0,0.0,50,0.00,,,0.02,WUHU216HW,2013-02-16 19:15:00,
2013-02-16 14:20:00,42.6,24.8,30.25,SSE,158,0.0,0.0,49,0.00,,,0.02,WUHU216HW,2013-02-16 19:20:00,
2013-02-16 14:25:00,42.6,25.3,30.24,WNW,293,0.0,0.0,50,0.00,,,0.02,WUHU216HW,2013-02-16 19:25:00,
2013-02-16 14:30:00,42.9,25.6,30.25,ESE,113,0.0,0.0,50,0.00,,,0.02,WUHU216HW,2013-02-16 19:30:00,
2013-02-16 14:35:00,42.9,25.6,30.24,WNW,293,0.0,0.0,50,0.00,,,0.02,WUHU216HW,2013-02-16 19:35:00,
2013-02-16 14:40:00,42.8,25.5,30.24,WNW,293,0.0,0.0,50,0.00,,,0.02,WUHU216HW,2013-02-16 19:40:00,
2013-02-16 14:45:00,42.9,25.6,30.23,West,270,0.0,0.0,50,0.00,,,0.02,WUHU216HW,2013-02-16 19:45:00,
2013-02-16 14:50:00,42.9,25.6,30.24,SSE,158,0.0,0.0,50,0.00,,,0.02,WUHU216HW,2013-02-16 19:50:00,
2013-02-16 14:55:00,43.3,25.4,30.24,SSE,158,0.0,0.0,49,0.00,,,0.02,WUHU216HW,2013-02-16 19:55:00,
2013-02-16 15:00:00,43.3,25.4,30.24,NW,315,0.0,0.0,49,0.00,,,0.02,WUHU216HW,2013-02-16 20:00:00,
2013-02-16 15:05:00,43.1,24.7,30.24,WNW,293,0.0,0.0,48,0.00,,,0.02,WUHU216HW,2013-02-16 20:05:00,
2013-02-16 15:10:00,42.9,24.6,30.24,ESE,113,0.0,0.0,48,0.00,,,0.02,WUHU216HW,2013-02-16 20:10:00,
2013-02-16 15:15:00,42.9,25.1,30.24,West,270,0.0,0.0,49,0.00,,,0.02,WUHU216HW,2013-02-16 20:15:00,
2013-02-16 15:20:00,42.9,24.2,30.24,SSE,158,0.0,0.0,48,0.00,,,0.02,WUHU216HW,2013-02-16 20:20:00,
2013-02-16 15:25:00,42.4,24.0,30.25,NW,315,0.0,0.0,48,0.00,,,0.02,WUHU216HW,2013-02-16 20:25:00,
2013-02-16 15:30:00,42.0,24.2,30.24,NW,315,0.0,0.0,49,0.00,,,0.02,WUHU216HW,2013-02-16 20:30:00,
2013-02-16 15:35:00,42.0,24.2,30.25,NW,315,0.0,0.0,49,0.00,,,0.02,WUHU216HW,2013-02-16 20:35:00,
2013-02-16 15:40:00,41.7,23.9,30.25,SE,135,0.0,0.0,49,0.00,,,0.02,WUHU216HW,2013-02-16 20:40:00,
2013-02-16 15:46:00,41.5,23.7,30.25,SSW,203,0.0,0.0,49,0.00,,,0.02,WUHU216HW,2013-02-16 20:46:00,
2013-02-16 15:51:00,41.1,22.8,30.25,ENE,68,0.0,0.0,48,0.00,,,0.02,WUHU216HW,2013-02-16 20:51:00,
2013-02-16 15:56:00,40.8,23.0,30.25,West,270,0.0,0.0,49,0.00,,,0.02,WUHU216HW,2013-02-16 20:56:00,
2013-02-16 16:01:00,40.8,23.0,30.25,NNW,338,0.0,0.0,49,0.00,,,0.02,WUHU216HW,2013-02-16 21:01:00,
2013-02-16 16:06:00,40.2,22.5,30.24,NNE,23,0.0,0.0,49,0.00,,,0.02,WUHU216HW,2013-02-16 21:06:00,
2013-02-16 16:11:00,40.1,22.3,30.24,WNW,293,0.0,3.8,49,0.00,,,0.02,WUHU216HW,2013-02-16 21:11:00,
2013-02-16 16:17:00,39.7,22.0,30.24,NW,315,6.0,6.0,49,0.00,,,0.02,WUHU216HW,2013-02-16 21:17:00,
2013-02-16 16:22:00,39.3,21.7,30.24,WNW,293,0.0,6.0,49,0.00,,,0.02,WUHU216HW,2013-02-16 21:22:00,
2013-02-16 16:28:00,39.0,21.4,30.23,West,270,0.0,4.9,49,0.00,,,0.02,WUHU216HW,2013-02-16 21:28:00,
2013-02-16 16:33:00,39.0,21.9,30.23,WNW,293,0.0,4.9,50,0.00,,,0.02,WUHU216HW,2013-02-16 21:33:00,
2013-02-16 16:38:00,38.4,21.8,30.23,WNW,293,0.0,0.0,51,0.00,,,0.02,WUHU216HW,2013-02-16 21:38:00,
2013-02-16 16:43:00,38.4,21.8,30.24,NW,315,0.0,3.5,51,0.00,,,0.02,WUHU216HW,2013-02-16 21:43:00,
2013-02-16 16:48:00,38.1,21.5,30.23,WSW,248,0.0,6.2,51,0.00,,,0.02,WUHU216HW,2013-02-16 21:48:00,
2013-02-16 16:53:00,38.1,21.5,30.23,NW,315,0.0,6.2,51,0.00,,,0.02,WUHU216HW,2013-02-16 21:53:00,
2013-02-16 16:58:00,37.9,21.3,30.23,WNW,293,0.0,0.0,51,0.00,,,0.02,WUHU216HW,2013-02-16 21:58:00,
2013-02-16 17:03:00,37.7,21.2,30.23,WNW,293,2.4,3.5,51,0.00,,,0.02,WUHU216HW,2013-02-16 22:03:00,
2013-02-16 17:08:00,37.7,21.2,30.22,WNW,293,2.6,3.5,51,0.00,,,0.02,WUHU216HW,2013-02-16 22:08:00,
2013-02-16 17:13:00,37.5,20.6,30.22,WNW,293,3.8,6.0,50,0.00,,,0.02,WUHU216HW,2013-02-16 22:13:00,
2013-02-16 17:20:00,37.4,20.4,30.22,WNW,293,0.0,6.0,50,0.00,,,0.02,WUHU216HW,2013-02-16 22:20:00,
2013-02-16 17:25:00,37.4,20.4,30.23,WNW,293,0.0,3.3,50,0.00,,,0.02,WUHU216HW,2013-02-16 22:25:00,
2013-02-16 17:31:00,37.2,20.3,30.23,WNW,293,0.0,3.8,50,0.00,,,0.02,WUHU216HW,2013-02-16 22:31:00,
2013-02-16 17:36:00,37.2,19.7,30.22,NW,315,0.0,3.8,49,0.00,,,0.02,WUHU216HW,2013-02-16 22:36:00,
2013-02-16 17:41:00,37.0,19.6,30.22,NW,315,0.0,0.0,49,0.00,,,0.02,WUHU216HW,2013-02-16 22:41:00,
2013-02-16 17:46:00,37.0,19.6,30.22,NW,315,0.0,0.0,49,0.00,,,0.02,WUHU216HW,2013-02-16 22:46:00,
2013-02-16 17:51:00,36.6,19.3,30.22,WNW,293,0.0,0.0,49,0.00,,,0.02,WUHU216HW,2013-02-16 22:51:00,
2013-02-16 17:56:00,36.6,19.8,30.22,WNW,293,0.0,6.2,50,0.00,,,0.02,WUHU216HW,2013-02-16 22:56:00,
2013-02-16 18:01:00,36.6,19.8,30.22,WNW,293,0.0,6.2,50,0.00,,,0.02,WUHU216HW,2013-02-16 23:01:00,
2013-02-16 18:06:00,36.5,19.6,30.22,North,0,0.0,0.0,50,0.00,,,0.02,WUHU216HW,2013-02-16 23:06:00,
2013-02-16 18:12:00,36.5,19.6,30.22,West,270,0.0,0.0,50,0.00,,,0.02,WUHU216HW,2013-02-16 23:12:00,
2013-02-16 18:17:00,36.3,19.5,30.22,WNW,293,3.1,3.1,50,0.00,,,0.02,WUHU216HW,2013-02-16 23:17:00,
2013-02-16 18:22:00,36.3,19.5,30.22,NNE,23,0.0,3.1,50,0.00,,,0.02,WUHU216HW,2013-02-16 23:22:00,
2013-02-16 18:27:00,36.1,19.3,30.21,West,270,3.8,3.8,50,0.00,,,0.02,WUHU216HW,2013-02-16 23:27:00,
2013-02-16 18:32:00,36.1,19.3,30.21,WNW,293,0.0,3.8,50,0.00,,,0.02,WUHU216HW,2013-02-16 23:32:00,
2013-02-16 18:37:00,35.9,19.1,30.21,WNW,293,0.0,3.8,50,0.00,,,0.02,WUHU216HW,2013-02-16 23:37:00,
2013-02-16 18:43:00,35.7,19.0,30.21,WNW,293,4.4,5.8,50,0.00,,,0.02,WUHU216HW,2013-02-16 23:43:00,
2013-02-16 18:48:00,35.7,19.4,30.21,West,270,4.2,5.8,51,0.00,,,0.02,WUHU216HW,2013-02-16 23:48:00,
2013-02-16 18:53:00,35.7,19.4,30.21,NNW,338,0.0,4.4,51,0.00,,,0.02,WUHU216HW,2013-02-16 23:53:00,
2013-02-16 18:58:00,35.7,19.4,30.21,NW,315,7.1,7.1,51,0.00,,,0.02,WUHU216HW,2013-02-16 23:58:00,
2013-02-16 19:03:00,35.4,19.1,30.21,WNW,293,0.0,7.1,51,0.00,,,0.02,WUHU216HW,2013-02-17 00:03:00,
2013-02-16 19:08:00,35.4,19.1,30.21,WNW,293,2.6,3.8,51,0.00,,,0.02,WUHU216HW,2013-02-17 00:08:00,
2013-02-16 19:14:00,35.4,19.1,30.21,NNW,338,0.0,6.9,51,0.00,,,0.02,WUHU216HW,2013-02-17 00:14:00,
2013-02-16 19:19:00,35.2,19.3,30.21,WNW,293,0.0,6.9,52,0.00,,,0.02,WUHU216HW,2013-02-17 00:19:00,
2013-02-16 19:24:00,35.4,19.5,30.21,WNW,293,0.0,0.0,52,0.00,,,0.02,WUHU216HW,2013-02-17 00:24:00,
2013-02-16 19:29:00,35.2,18.9,30.21,NNW,338,0.0,0.0,51,0.00,,,0.02,WUHU216HW,2013-02-17 00:29:00,
2013-02-16 19:34:00,35.2,18.9,30.21,WNW,293,0.0,5.5,51,0.00,,,0.02,WUHU216HW,2013-02-17 00:34:00,
2013-02-16 19:39:00,35.2,18.9,30.21,NW,315,4.2,5.5,51,0.00,,,0.02,WUHU216HW,2013-02-17 00:39:00,
2013-02-16 19:44:00,34.8,18.1,30.21,WNW,293,4.2,6.0,50,0.00,,,0.02,WUHU216HW,2013-02-17 00:44:00,
2013-02-16 19:49:00,34.8,18.1,30.21,West,270,0.0,6.0,50,0.00,,,0.02,WUHU216HW,2013-02-17 00:49:00,
2013-02-16 19:55:00,34.7,17.9,30.21,NW,315,0.0,4.2,50,0.00,,,0.02,WUHU216HW,2013-02-17 00:55:00,
2013-02-16 20:00:00,34.7,18.3,30.21,NNW,338,5.5,5.5,51,0.00,,,0.02,WUHU216HW,2013-02-17 01:00:00,
2013-02-16 20:06:00,34.7,17.9,30.21,NW,315,0.0,5.5,50,0.00,,,0.02,WUHU216HW,2013-02-17 01:06:00,
2013-02-16 20:11:00,34.7,17.9,30.20,WNW,293,0.0,0.0,50,0.00,,,0.02,WUHU216HW,2013-02-17 01:11:00,
2013-02-16 20:16:00,34.7,17.9,30.20,WNW,293,0.0,0.0,50,0.00,,,0.02,WUHU216HW,2013-02-17 01:16:00,
2013-02-16 20:21:00,34.5,17.2,30.21,WNW,293,0.0,4.9,49,0.00,,,0.02,WUHU216HW,2013-02-17 01:21:00,
2013-02-16 20:26:00,34.5,16.7,30.20,NE,45,0.0,7.3,48,0.00,,,0.02,WUHU216HW,2013-02-17 01:26:00,
2013-02-16 20:31:00,34.3,16.0,30.20,NW,315,0.0,7.3,47,0.00,,,0.02,WUHU216HW,2013-02-17 01:31:00,
2013-02-16 20:36:00,34.3,16.5,30.20,East,90,0.0,5.3,48,0.00,,,0.02,WUHU216HW,2013-02-17 01:36:00,
2013-02-16 20:41:00,34.3,16.5,30.21,NNW,338,0.0,0.0,48,0.00,,,0.02,WUHU216HW,2013-02-17 01:41:00,
2013-02-16 20:46:00,34.3,16.0,30.21,West,270,4.6,4.6,47,0.00,,,0.02,WUHU216HW,2013-02-17 01:46:00,
2013-02-16 20:51:00,33.9,15.7,30.20,WNW,293,0.0,4.6,47,0.00,,,0.02,WUHU216HW,2013-02-17 01:51:00,
2013-02-16 20:56:00,33.8,15.0,30.20,WSW,248,0.0,6.2,46,0.00,,,0.02,WUHU216HW,2013-02-17 01:56:00,
2013-02-16 21:01:00,33.6,14.3,30.20,North,0,0.0,6.2,45,0.00,,,0.02,WUHU216HW,2013-02-17 02:01:00,
2013-02-16 21:06:00,33.4,13.2,30.20,West,270,6.0,6.2,43,0.00,,,0.02,WUHU216HW,2013-02-17 02:06:00,
2013-02-16 21:11:00,33.2,12.5,30.21,West,270,5.5,6.2,42,0.00,,,0.02,WUHU216HW,2013-02-17 02:11:00,
2013-02-16 21:16:00,33.0,12.3,30.20,WNW,293,3.8,6.0,42,0.00,,,0.02,WUHU216HW,2013-02-17 02:16:00,
2013-02-16 21:21:00,32.9,12.7,30.20,WNW,293,6.9,6.9,43,0.00,,,0.02,WUHU216HW,2013-02-17 02:21:00,
2013-02-16 21:26:00,32.9,12.2,30.19,NW,315,2.9,6.9,42,0.00,,,0.02,WUHU216HW,2013-02-17 02:26:00,
2013-02-16 21:31:00,32.7,11.0,30.20,West,270,5.5,12.5,40,0.00,,,0.02,WUHU216HW,2013-02-17 02:31:00,
2013-02-16 21:36:00,32.7,12.0,30.19,NNW,338,0.0,12.5,42,0.00,,,0.02,WUHU216HW,2013-02-17 02:36:00,
2013-02-16 21:41:00,32.7,12.0,30.19,WNW,293,0.0,8.0,42,0.00,,,0.02,WUHU216HW,2013-02-17 02:41:00,
2013-02-16 21:46:00,32.5,11.8,30.19,NW,315,0.0,0.0,42,0.00,,,0.02,WUHU216HW,2013-02-17 02:46:00,
2013-02-16 21:51:00,32.5,10.8,30.19,NNW,338,0.0,5.3,40,0.00,,,0.02,WUHU216HW,2013-02-17 02:51:00,
2013-02-16 21:57:00,32.5,10.8,30.19,NW,315,0.0,5.3,40,0.00,,,0.02,WUHU216HW,2013-02-17 02:57:00,
2013-02-16 22:02:00,32.5,10.8,30.19,NW,315,2.9,2.9,40,0.00,,,0.02,WUHU216HW,2013-02-17 03:02:00,
2013-02-16 22:07:00,32.5,10.8,30.19,NW,315,2.6,7.1,40,0.00,,,0.02,WUHU216HW,2013-02-17 03:07:00,
2013-02-16 22:12:00,32.3,9.4,30.18,WNW,293,6.4,7.1,38,0.00,,,0.02,WUHU216HW,2013-02-17 03:12:00,
2013-02-16 22:17:00,32.3,9.4,30.17,WNW,293,3.5,6.4,38,0.00,,,0.02,WUHU216HW,2013-02-17 03:17:00,
2013-02-16 22:22:00,32.1,10.5,30.17,NNW,338,0.0,6.0,40,0.00,,,0.02,WUHU216HW,2013-02-17 03:22:00,
2013-02-16 22:27:00,32.1,9.3,30.17,WNW,293,5.5,6.0,38,0.00,,,0.02,WUHU216HW,2013-02-17 03:27:00,
2013-02-16 22:32:00,32.1,9.3,30.16,WNW,293,5.5,5.5,38,0.00,,,0.02,WUHU216HW,2013-02-17 03:32:00,
2013-02-16 22:38:00,32.1,9.3,30.16,WNW,293,0.0,11.6,38,0.00,,,0.02,WUHU216HW,2013-02-17 03:38:00,
2013-02-16 22:43:00,32.1,9.3,30.15,NW,315,0.0,11.6,38,0.00,,,0.02,WUHU216HW,2013-02-17 03:43:00,
2013-02-16 22:48:00,32.0,9.7,30.15,WNW,293,0.0,5.5,39,0.00,,,0.02,WUHU216HW,2013-02-17 03:48:00,
2013-02-16 22:53:00,32.1,9.9,30.14,West,270,0.0,4.2,39,0.00,,,0.02,WUHU216HW,2013-02-17 03:53:00,
2013-02-16 22:58:00,32.0,9.7,30.14,WNW,293,6.7,7.1,39,0.00,,,0.02,WUHU216HW,2013-02-17 03:58:00,
2013-02-16 23:03:00,31.8,10.7,30.13,WNW,293,3.1,7.1,41,0.00,,,0.02,WUHU216HW,2013-02-17 04:03:00,
2013-02-16 23:08:00,31.8,8.9,30.13,NNW,338,0.0,6.0,38,0.00,,,0.02,WUHU216HW,2013-02-17 04:08:00,
2013-02-16 23:13:00,31.8,9.6,30.13,WNW,293,4.4,5.3,39,0.00,,,0.02,WUHU216HW,2013-02-17 04:13:00,
2013-02-16 23:18:00,32.0,9.7,30.13,WNW,293,0.0,4.4,39,0.00,,,0.02,WUHU216HW,2013-02-17 04:18:00,
2013-02-16 23:23:00,31.8,9.6,30.13,NW,315,0.0,3.1,39,0.00,,,0.02,WUHU216HW,2013-02-17 04:23:00,
2013-02-16 23:28:00,31.8,8.9,30.13,NW,315,6.2,7.8,38,0.00,,,0.02,WUHU216HW,2013-02-17 04:28:00,
2013-02-16 23:33:00,31.8,8.3,30.12,NW,315,0.0,7.8,37,0.00,,,0.02,WUHU216HW,2013-02-17 04:33:00,
2013-02-16 23:40:00,31.8,8.3,30.13,WNW,293,4.2,7.6,37,0.00,,,0.02,WUHU216HW,2013-02-17 04:40:00,
2013-02-16 23:45:00,31.8,8.9,30.12,WNW,293,1.3,7.6,38,0.00,,,0.02,WUHU216HW,2013-02-17 04:45:00,
2013-02-16 23:50:00,31.6,8.8,30.11,WSW,248,2.6,4.6,38,0.00,,,0.02,WUHU216HW,2013-02-17 04:50:00,
2013-02-16 23:55:00,31.6,8.1,30.11,West,270,6.0,6.4,37,0.00,,,0.02,WUHU216HW,2013-02-17 04:55:00,